TimeEDT,TemperatureF,Dew PointF,Humidity,Sea Level PressureIn,VisibilityMPH,Wind Direction,Wind SpeedMPH,Gust SpeedMPH,PrecipitationIn,Events,Conditions,WindDirDegrees,DateUTC
12:53 AM,71.1,68.0,90,30.00,10.0,NW,8.1,-,N/A,,Scattered Clouds,320,2011-11-01 04:53:00
1:53 AM,70.0,68.0,93,29.99,10.0,NNW,8.1,-,N/A,,Partly Cloudy,330,2011-11-01 05:53:00
2:53 AM,70.0,68.0,93,29.99,10.0,NNW,9.2,-,N/A,,Clear,330,2011-11-01 06:53:00
3:53 AM,70.0,68.0,93,29.98,10.0,NNW,8.1,-,N/A,,Clear,340,2011-11-01 07:53:00
4:53 AM,70.0,68.0,93,29.98,10.0,NNW,10.4,-,N/A,,Clear,340,2011-11-01 08:53:00
5:53 AM,70.0,68.0,93,30.00,10.0,NNW,9.2,-,N/A,,Clear,340,2011-11-01 09:53:00
6:53 AM,70.0,68.0,93,30.01,10.0,NNW,10.4,-,N/A,,Partly Cloudy,340,2011-11-01 10:53:00
7:53 AM,71.1,69.1,93,30.02,10.0,North,9.2,-,N/A,,Mostly Cloudy,350,2011-11-01 11:53:00
10:53 AM,78.1,70.0,76,30.06,10.0,ENE,11.5,-,N/A,,Overcast,60,2011-11-01 14:53:00
11:53 AM,82.0,68.0,62,30.06,10.0,ENE,18.4,24.2,N/A,,Mostly Cloudy,60,2011-11-01 15:53:00
1:53 PM,82.0,69.1,65,30.03,10.0,NE,18.4,26.5,0.00,,Mostly Cloudy,50,2011-11-01 17:53:00
3:53 PM,78.1,71.1,79,30.02,9.0,NE,18.4,33.4,0.00,Rain,Light Rain,40,2011-11-01 19:53:00
4:53 PM,78.1,69.1,74,30.03,10.0,NNE,18.4,-,0.00,,Mostly Cloudy,20,2011-11-01 20:53:00
5:53 PM,77.0,69.1,76,30.04,10.0,NNE,18.4,27.6,0.00,,Mostly Cloudy,30,2011-11-01 21:53:00
5:54 PM,77.0,69.8,78,30.03,10.0,NNE,19.6,27.6,N/A,,Mostly Cloudy,30,2011-11-01 21:54:00
6:23 PM,77.0,68.0,74,30.04,10.0,NE,23.0,29.9,N/A,,Overcast,40,2011-11-01 22:23:00
6:41 PM,77.0,68.0,74,30.04,10.0,NNE,18.4,27.6,0.00,Rain,Light Rain,30,2011-11-01 22:41:00
6:53 PM,75.9,69.1,79,30.05,10.0,NE,20.7,29.9,0.00,Rain,Light Rain,40,2011-11-01 22:53:00
7:04 PM,75.2,69.8,83,30.05,10.0,NNE,20.7,29.9,0.00,,Overcast,30,2011-11-01 23:04:00
7:33 PM,75.2,69.8,83,30.05,10.0,NNE,19.6,26.5,0.01,,Overcast,30,2011-11-01 23:33:00
7:53 PM,75.9,68.0,76,30.06,10.0,NNE,18.4,27.6,0.01,,Overcast,30,2011-11-01 23:53:00
8:53 PM,75.9,68.0,76,30.08,10.0,NE,21.9,28.8,0.00,,Overcast,40,2011-11-02 00:53:00
9:01 PM,75.2,68.0,78,30.08,10.0,NE,19.6,31.1,N/A,,Overcast,40,2011-11-02 01:01:00
9:53 PM,75.0,68.0,79,30.09,10.0,NE,20.7,31.1,0.00,Rain,Light Rain,40,2011-11-02 01:53:00
10:53 PM,75.9,68.0,76,30.09,10.0,NE,19.6,29.9,N/A,,Overcast,50,2011-11-02 02:53:00
11:53 PM,75.0,68.0,79,30.09,10.0,NE,18.4,28.8,N/A,,Mostly Cloudy,40,2011-11-02 03:53:00